Change the Weather History Date:

Sunday, September 30, 2012

  Actual Average Record
Temperature  
Mean Temperature 63 °F 57 °F  
Max Temperature 75 °F 72 °F 90 °F (1980)
Min Temperature 50 °F 42 °F 25 °F (1985)
Degree Days  
Heating Degree Days 2 8  
Month to date heating degree days 69 123  
Since 1 July heating degree days 69 141  
Cooling Degree Days 0 1  
Month to date cooling degree days 113 76  
Year to date cooling degree days 1235 764  
Growing Degree Days 12 (Base 50)    
Moisture  
Dew Point 38 °F    
Average Humidity 47    
Maximum Humidity 71    
Minimum Humidity 23    
Precipitation  
Precipitation 0.00 in 0.04 in 0.73 in (1904)
Month to date precipitation 2.95 0.96  
Year to date precipitation 8.35 12.32  
Snow  
Snow 0.00 in - - ()
Month to date snowfall 0  
Since 1 July snowfall 0  
Since 1 September snowfall 0  
Snow Depth 0.00 in    
Sea Level Pressure  
Sea Level Pressure 30.01 in    
Wind  
Wind Speed 11 mph (NW)    
Max Wind Speed 24 mph    
Max Gust Speed 30 mph    
Visibility 10 miles    
Events      
T = Trace of Precipitation, MM = Missing Value Source: NWS Daily Summary

Daily Weather History Graph

Daily Weather History Graph

Search for Another Location

Airport or City:

Trip Planner

Search our weather history database for the weather conditions in past years. The results will help you decide how hot, cold, wet, or windy it might be!

Date:

Astronomy

Sep. 30, 2012 Rise Set
Actual Time 6:54 AM MDT 6:41 PM MDT
Civil Twilight 6:27 AM MDT 7:08 PM MDT
Nautical Twilight 5:56 AM MDT 7:39 PM MDT
Astronomical Twilight 5:24 AM MDT 8:11 PM MDT
Moon 6:47 PM MDT (9/30) 7:27 AM MDT (9/30)
Length of Visible Light 12h 41m
Length of Day
11h 47m
Full, 100% of the Moon is Illuminated
Sep 30
Full
Oct 8
Last Quarter
Oct 15
New
Oct 21
First Quarter
Oct 29
Full

Hourly Weather History & Observations

Time (MDT) Temp. Dew Point Humidity Pressure Visibility Wind Dir Wind Speed Gust Speed Precip Events Conditions
12:53 AM 57.9 °F 41.0 °F 53% 29.98 in 10.0 mi West 6.9 mph - N/A   Mostly Cloudy
1:53 AM 55.9 °F 42.1 °F 60% 29.98 in 10.0 mi WSW 6.9 mph - N/A   Mostly Cloudy
2:53 AM 57.0 °F 42.1 °F 57% 29.97 in 10.0 mi West 6.9 mph - N/A   Mostly Cloudy
3:53 AM 53.6 °F 44.6 °F 72% 30.16 in 10.0 mi South 10.4 mph - N/A   Mostly Cloudy
4:53 AM 55.0 °F 41.0 °F 59% 29.96 in 10.0 mi SW 6.9 mph - N/A   Mostly Cloudy
5:53 AM 54.0 °F 39.9 °F 59% 29.97 in 10.0 mi SW 8.1 mph - N/A   Scattered Clouds
6:53 AM 51.1 °F 39.9 °F 66% 30.01 in 10.0 mi SW 5.8 mph - N/A   Mostly Cloudy
7:53 AM 57.0 °F 39.9 °F 53% 30.01 in 10.0 mi West 3.5 mph - N/A   Mostly Cloudy
8:53 AM 63.0 °F 37.0 °F 38% 30.04 in 10.0 mi NNW 11.5 mph - N/A   Scattered Clouds
9:53 AM 66.0 °F 37.0 °F 34% 30.05 in 10.0 mi NNW 17.3 mph - N/A   Scattered Clouds
10:53 AM 69.1 °F 37.0 °F 31% 30.03 in 10.0 mi NNW 16.1 mph 24.2 mph N/A   Scattered Clouds
11:53 AM 69.1 °F 37.0 °F 31% 30.02 in 10.0 mi NNW 17.3 mph 27.6 mph N/A   Scattered Clouds
12:53 PM 73.0 °F 36.0 °F 26% 30.01 in 10.0 mi North 16.1 mph 26.5 mph N/A   Scattered Clouds
1:53 PM 73.9 °F 35.1 °F 24% 29.99 in 10.0 mi NNW 20.7 mph 25.3 mph N/A   Scattered Clouds
2:53 PM 73.9 °F 33.1 °F 22% 29.97 in 10.0 mi North 9.2 mph 20.7 mph N/A   Scattered Clouds
3:53 PM 73.9 °F 34.0 °F 23% 29.97 in 10.0 mi North 15.0 mph 21.9 mph N/A   Scattered Clouds
4:53 PM 73.9 °F 34.0 °F 23% 29.96 in 10.0 mi North 15.0 mph 19.6 mph N/A   Scattered Clouds
5:53 PM 69.1 °F 35.1 °F 29% 29.98 in 10.0 mi North 5.8 mph - N/A   Scattered Clouds
6:53 PM 66.0 °F 37.0 °F 34% 30.02 in 10.0 mi North 11.5 mph - N/A   Mostly Cloudy
7:53 PM 64.0 °F 37.0 °F 37% 30.02 in 10.0 mi NNW 10.4 mph - N/A   Mostly Cloudy
8:53 PM 64.4 °F 37.4 °F 37% 30.20 in 10.0 mi WNW 9.2 mph - N/A   Scattered Clouds
9:53 PM 63.0 °F 37.0 °F 38% 30.02 in 10.0 mi WNW 6.9 mph - N/A   Scattered Clouds
10:53 PM 63.0 °F 37.9 °F 40% 30.02 in 10.0 mi West 9.2 mph - N/A   Mostly Cloudy
11:53 PM 60.1 °F 39.0 °F 46% 30.04 in 10.0 mi NNW 5.8 mph - N/A   Mostly Cloudy